Location: Newark
(42.7133°N, 87.7910°W)
Time: 14:28:47
(UTC+00:00)

Vanguard 1 - Pass Details

Date: 27 September 2019
Orbit: 653 x 3830 km, 34.2° (Epoch: 20 October)

Event Time Altitude Azimuth Distance (km) Brightness Sun altitude
Rises 13:58:18 0° 282° (WNW) 7,417 14.0 23.0°
Reaches altitude 10° 14:06:53 10° 264° (W) 5,764 13.6 24.4°
Maximum altitude 14:14:31 15° 236° (SW) 4,621 13.3 25.7°
Drops below altitude 10° 14:20:34 10° 206° (SSW) 4,357 13.5 26.6°
Sets 14:25:27 0° 184° (S) 4,755 13.9 27.4°
